Zurück zum Katalog

KUIPER-00131

AktivKommunikationLEO
NORAD 68573·PAYLOAD·🇺🇸 United States

Gestartet Apr 4, 2026 von Cape Canaveral Space Force Station

Loading…

Nächste Überflüge (nächste 24 Stunden)

TLE

AktuellSource: CelesTrak SupGP

Epoche: Sep 14, 2026, 19:09 UTC

1 68573C 26072A   26257.79836806 -.00000880  00000+0 -11517-3 0  2577
2 68573  51.8991 159.3932 0000905  97.1375  57.9727 14.79930404    11

Verfolge KUIPER-00131 in Echtzeit mit AllMySat

Download on the App Store